Temp
-3 -3 -3 -2 -2 -3 -3 -3 -4 -5 -5 -5 -6 -9 -10 -11 -12 -12 -13 -13 -13 -14 -14 -14 -14 -15 -15 -14 -14 -14 -14 -14 -14 -13 -13 -13 -13 -13 -13 -13 -13 -13 -13 -15
-3 -3 -3 -3 -3 -3 -3 -4 -5 -5 -6 -6 -8 -9 -11 -12 -12 -13 -13 -14 -14 -14 -14 -15 -15 -15 -15 -15 -15 -15 -15 -15 -14 -14 -14 -14 -14 -14 -14 -14 -14 -13 -13 -15
-3 -4 -4 -4 -3 -4 -4 -4 -5 -6 -6 -7 -8 -9 -11 -12 -13 -14 -14 -15 -14 -14 -15 -15 -15 -15 -15 -15 -15 -15 -15 -15 -15 -15 -15 -15 -15 -14 -14 -14 -14 -14 -14 -14
-4 -4 -4 -4 -4 -4 -4 -5 -6 -7 -7 -8 -9 -10 -11 -12 -13 -13 -14 -15 -15 -15 -15 -15 -16 -15 -15 -15 -15 -14 -15 -15 -16 -16 -15 -15 -15 -15 -15 -14 -15 -15 -15 -15
-5 -5 -5 -5 -5 -5 -5 -6 -7 -7 -8 -9 -9 -10 -11 -12 -12 -13 -14 -15 -15 -15 -15 -16 -16 -16 -16 -15 -15 -15 -15 -16 -16 -17 -16 -16 -16 -17 -17 -16 -16 -16 -16 -16
-5 -5 -5 -5 -5 -5 -5 -6 -7 -7 -8 -9 -9 -10 -11 -12 -13 -13 -14 -14 -15 -15 -15 -16 -16 -16 -17 -16 -16 -15 -15 -15 -15 -16 -16 -16 -16 -17 -17 -17 -17 -16 -16 -16
-5 -5 -6 -6 -6 -6 -6 -6 -7 -8 -9 -9 -10 -10 -12 -12 -13 -13 -14 -14 -14 -14 -15 -16 -16 -17 -17 -16 -16 -16 -15 -15 -15 -16 -16 -20 -17 -18 -18 -17 -16 -16 -17 -17
-5 -5 -6 -6 -6 -6 -6 -7 -7 -8 -9 -10 -10 -11 -12 -12 -13 -13 -13 -14 -14 -14 -15 -16 -16 -16 -16 -16 -16 -16 -15 -15 -15 -16 -17 -18 -18 -18 -17 -17 -16 -17 -18 -18
-5 -5 -5 -6 -6 -6 -6 -7 -7 -8 -9 -10 -10 -11 -11 -12 -13 -13 -13 -14 -14 -14 -15 -15 -15 -16 -16 -16 -16 -16 -16 -16 -16 -16 -19 -19 -17 -17 -17 -17 -17 -18 -18 -19
-5 -5 -5 -6 -6 -6 -7 -7 -8 -8 -9 -10 -10 -11 -11 -12 -13 -13 -13 -14 -14 -14 -14 -15 -15 -15 -15 -15 -15 -16 -16 -16 -17 -17 -17 -17 -17 -17 -17 -18 -18 -19 -19 -19
-5 -5 -5 -6 -6 -6 -7 -8 -8 -8 -9 -10 -11 -11 -11 -12 -13 -14 -14 -14 -14 -14 -15 -15 -15 -15 -15 -15 -15 -15 -16 -16 -17 -17 -17 -18 -16 -17 -18 -18 -18 -19 -19 -19
-5 -5 -5 -6 -6 -6 -7 -7 -8 -8 -9 -10 -11 -11 -12 -12 -13 -13 -14 -14 -15 -15 -16 -16 -16 -16 -16 -15 -16 -15 -16 -16 -16 -16 -16 -16 -17 -18 -18 -18 -18 -18 -19 -19
-5 -5 -6 -6 -6 -6 -7 -7 -8 -8 -9 -10 -11 -11 -12 -12 -13 -14 -14 -15 -15 -16 -16 -17 -17 -17 -17 -16 -15 -15 -15 -16 -16 -16 -16 -17 -17 -18 -18 -19 -18 -19 -19 -18
-5 -5 -5 -6 -6 -6 -7 -7 -8 -8 -9 -10 -11 -11 -12 -12 -13 -13 -14 -15 -16 -16 -17 -17 -17 -18 -18 -17 -17 -16 -16 -16 -16 -16 -16 -17 -17 -18 -18 -19 -19 -19 -18 -18
-6 -6 -6 -6 -6 -6 -7 -8 -8 -8 -9 -9 -10 -11 -11 -12 -12 -13 -14 -15 -15 -16 -17 -17 -18 -18 -19 -18 -18 -16 -16 -16 -16 -17 -17 -18 -18 -18 -19 -19 -18 -18 -18 -18
-6 -6 -6 -6 -6 -7 -8 -7 -8 -8 -9 -9 -10 -10 -11 -11 -12 -13 -14 -15 -15 -16 -17 -18 -18 -19 -19 -19 -18 -16 -16 -17 -17 -17 -17 -18 -18 -19 -19 -18 -18 -18 -18 -18
-6 -6 -6 -6 -7 -8 -9 -9 -9 -8 -9 -10 -10 -11 -11 -12 -13 -14 -14 -15 -16 -17 -17 -17 -18 -19 -19 -19 -16 -15 -16 -16 -17 -17 -18 -18 -18 -19 -18 -18 -18 -18 -19 -19
-6 -6 -6 -6 -7 -8 -8 -8 -9 -9 -9 -10 -10 -11 -12 -13 -14 -14 -15 -14 -15 -16 -17 -17 -17 -17 -18 -16 -16 -16 -17 -17 -18 -18 -18 -19 -19 -18 -18 -18 -18 -19 -19 -19
-6 -6 -6 -6 -6 -7 -8 -9 -9 -9 -10 -11 -11 -12 -13 -14 -14 -14 -15 -15 -16 -17 -16 -16 -16 -16 -15 -16 -16 -17 -17 -18 -18 -18 -19 -19 -19 -19 -19 -19 -19 -19 -19 -19
-6 -6 -6 -6 -7 -8 -8 -10 -10 -10 -10 -11 -12 -13 -14 -14 -14 -15 -15 -16 -16 -17 -17 -16 -15 -16 -15 -15 -16 -17 -17 -18 -18 -19 -19 -19 -19 -19 -19 -19 -19 -19 -19 -19
-6 -7 -6 -7 -8 -9 -10 -10 -10 -11 -11 -12 -12 -13 -14 -14 -14 -15 -15 -16 -16 -17 -17 -16 -16 -16 -17 -17 -17 -17 -18 -18 -19 -19 -19 -19 -19 -18 -19 -19 -19 -20 -20 -20
-7 -7 -7 -8 -9 -10 -10 -10 -11 -12 -12 -13 -13 -13 -14 -14 -14 -15 -16 -17 -17 -17 -17 -17 -16 -17 -17 -17 -17 -18 -18 -19 -19 -19 -19 -19 -19 -19 -19 -19 -20 -20 -20 -21
-7 -8 -8 -10 -10 -11 -11 -12 -12 -12 -13 -13 -13 -14 -14 -14 -15 -16 -17 -17 -17 -17 -17 -16 -17 -17 -17 -17 -18 -18 -19 -19 -20 -20 -20 -19 -19 -20 -20 -20 -20 -21 -21 -21
-8 -9 -10 -10 -10 -11 -12 -12 -12 -13 -13 -13 -13 -13 -14 -15 -16 -16 -16 -17 -17 -17 -17 -17 -17 -17 -17 -18 -18 -19 -20 -20 -20 -20 -20 -20 -20 -20 -20 -21 -21 -21 -22 -22
-9 -10 -10 -10 -11 -12 -12 -12 -12 -13 -13 -13 -13 -13 -14 -15 -16 -16 -16 -17 -17 -17 -17 -17 -17 -18 -17 -18 -19 -20 -20 -20 -19 -19 -20 -20 -20 -21 -21 -21 -21 -22 -22 -22
-9 -10 -11 -11 -12 -12 -12 -13 -13 -13 -13 -13 -13 -14 -15 -16 -16 -16 -16 -16 -16 -17 -17 -18 -18 -18 -18 -18 -19 -19 -19 -19 -19 -20 -20 -20 -21 -21 -22 -22 -22 -22 -22 -23
-10 -11 -12 -12 -12 -12 -13 -13 -13 -13 -13 -14 -14 -15 -15 -16 -16 -16 -16 -17 -17 -18 -18 -18 -18 -18 -18 -18 -18 -19 -19 -19 -20 -20 -21 -21 -21 -22 -22 -22 -23 -23 -23 -23
Height
3091 3083 3073 3065 3056 3051 3045 3037 3032 3027 3021 3018 3010 3008 3007 3006 3003 3000 2999 2998 2996 2995 2994 2992 2991 2991 2990 2988 2985 2984 2984 2984 2985 2985 2984 2984 2984 2984 2985 2985 2984 2982 2982 2987
3090 3083 3074 3065 3057 3048 3040 3034 3029 3024 3021 3014 3011 3009 3007 3004 3001 2999 2998 2997 2996 2994 2992 2992 2991 2990 2989 2986 2983 2982 2983 2983 2984 2983 2985 2983 2983 2983 2983 2983 2983 2981 2981 2984
3086 3081 3074 3065 3057 3049 3042 3035 3030 3023 3018 3015 3012 3009 3006 3003 3000 2998 2997 2996 2995 2993 2992 2991 2991 2990 2989 2986 2983 2982 2982 2983 2985 2986 2985 2985 2984 2983 2983 2983 2982 2981 2981 2981
3084 3076 3070 3064 3056 3049 3043 3037 3032 3026 3022 3017 3013 3009 3006 3004 3002 3000 2997 2995 2994 2993 2992 2991 2991 2990 2989 2987 2984 2982 2982 2983 2984 2983 2983 2982 2982 2982 2981 2981 2981 2981 2981 2980
3084 3075 3068 3061 3054 3048 3045 3037 3033 3026 3021 3017 3015 3011 3007 3005 3002 3001 2998 2996 2993 2993 2992 2992 2991 2991 2989 2988 2987 2984 2983 2983 2983 2983 2982 2982 2982 2983 2982 2981 2981 2980 2979 2979
3083 3075 3067 3060 3053 3046 3041 3037 3031 3026 3022 3017 3014 3011 3008 3006 3003 3001 2998 2996 2994 2993 2993 2991 2991 2990 2989 2988 2987 2985 2983 2983 2983 2984 2984 2983 2984 2983 2982 2982 2981 2980 2979 2978
3082 3074 3067 3060 3054 3047 3042 3037 3032 3026 3022 3018 3014 3010 3008 3006 3004 3001 2999 2997 2996 2995 2992 2992 2991 2990 2989 2988 2987 2986 2984 2983 2982 2982 2982 2986 2983 2982 2981 2979 2978 2977 2975 2973
3081 3074 3067 3061 3054 3048 3042 3035 3030 3026 3021 3018 3014 3010 3008 3006 3004 3002 3000 2998 2997 2995 2993 2992 2991 2990 2989 2988 2987 2986 2984 2983 2982 2981 2981 2982 2981 2981 2979 2975 2974 2972 2972 2970
3080 3073 3067 3060 3053 3047 3040 3034 3028 3024 3020 3017 3014 3010 3008 3007 3005 3003 3001 2999 2997 2995 2993 2992 2990 2989 2988 2987 2986 2985 2983 2982 2982 2980 2980 2980 2979 2978 2976 2973 2971 2970 2967 2965
3079 3072 3065 3059 3052 3045 3039 3032 3026 3021 3018 3016 3014 3011 3009 3006 3005 3003 3001 2998 2997 2995 2993 2991 2990 2988 2987 2985 2984 2983 2982 2980 2980 2978 2978 2977 2976 2975 2973 2973 2974 2966 2963 2958
3077 3070 3063 3056 3049 3042 3037 3030 3024 3020 3015 3014 3012 3011 3008 3005 3004 3002 3001 2999 2996 2993 2992 2991 2989 2987 2985 2983 2982 2981 2980 2979 2978 2977 2977 2976 2974 2972 2971 2968 2963 2959 2955 2950
3075 3068 3061 3054 3047 3040 3033 3027 3021 3017 3014 3013 3012 3010 3008 3006 3003 3002 3000 2998 2995 2993 2992 2990 2987 2985 2982 2981 2980 2978 2978 2978 2978 2977 2974 2972 2970 2967 2964 2961 2957 2951 2946 2941
3071 3065 3057 3050 3044 3036 3030 3024 3020 3015 3012 3011 3010 3008 3007 3005 3003 3001 2999 2996 2994 2991 2989 2986 2984 2982 2979 2978 2976 2975 2974 2973 2972 2972 2970 2969 2966 2962 2958 2955 2950 2945 2939 2932
3067 3061 3053 3047 3040 3033 3026 3021 3016 3014 3011 3009 3009 3006 3005 3004 3001 2999 2996 2993 2990 2987 2984 2981 2979 2978 2974 2973 2972 2971 2972 2970 2968 2966 2965 2963 2961 2957 2953 2949 2943 2937 2931 2925
3063 3057 3050 3042 3036 3029 3023 3019 3014 3012 3012 3009 3006 3004 3003 3002 3000 2997 2993 2989 2985 2981 2977 2975 2973 2971 2970 2967 2965 2962 2965 2964 2964 2962 2961 2958 2955 2951 2946 2941 2935 2929 2924 2920
3059 3052 3046 3039 3032 3025 3020 3015 3013 3010 3008 3006 3004 3003 3002 2999 2997 2994 2991 2986 2980 2977 2972 2969 2967 2967 2967 2964 2960 2960 2960 2960 2959 2958 2956 2952 2949 2944 2938 2933 2928 2924 2919 2912
3053 3047 3041 3035 3027 3022 3018 3016 3011 3008 3006 3004 3002 3002 3000 2997 2995 2992 2987 2981 2975 2972 2968 2965 2964 2963 2964 2961 2959 2959 2959 2957 2956 2953 2951 2947 2943 2936 2930 2925 2921 2916 2911 2906
3048 3042 3036 3029 3022 3018 3014 3010 3008 3006 3005 3003 3002 3001 2998 2994 2991 2986 2981 2975 2970 2967 2965 2964 2962 2961 2961 2960 2959 2958 2956 2954 2952 2949 2945 2941 2936 2929 2923 2919 2915 2911 2907 2902
3043 3037 3030 3025 3019 3014 3010 3006 3005 3005 3007 3002 3001 3000 2996 2992 2987 2982 2975 2970 2966 2965 2964 2962 2962 2960 2959 2960 2958 2956 2954 2951 2947 2944 2940 2935 2929 2923 2918 2914 2910 2905 2901 2896
3038 3033 3026 3019 3015 3009 3007 3004 3005 3003 3002 2999 2999 2997 2993 2990 2984 2978 2974 2968 2965 2963 2964 2961 2960 2959 2960 2959 2957 2953 2950 2946 2942 2938 2934 2928 2923 2917 2913 2908 2903 2898 2894 2889
3035 3028 3022 3016 3010 3008 3005 3006 3006 3004 3001 2998 2996 2993 2989 2985 2981 2976 2973 2968 2965 2963 2963 2961 2959 2960 2960 2957 2953 2949 2944 2940 2937 2932 2927 2921 2915 2911 2906 2902 2897 2893 2888 2884
3031 3027 3019 3013 3010 3008 3009 3007 3007 3004 3001 2997 2993 2990 2986 2980 2975 2971 2968 2966 2965 2962 2962 2960 2958 2958 2955 2952 2948 2943 2939 2935 2930 2925 2920 2914 2909 2905 2901 2897 2893 2888 2883 2879
3027 3020 3014 3013 3012 3011 3009 3009 3006 3003 2999 2995 2991 2987 2982 2976 2973 2969 2967 2964 2963 2962 2960 2959 2958 2956 2952 2947 2942 2937 2933 2929 2923 2918 2912 2907 2903 2898 2895 2892 2888 2883 2878 2874
3023 3017 3013 3013 3013 3011 3009 3006 3003 3000 2995 2991 2987 2983 2980 2974 2971 2968 2965 2964 2963 2961 2959 2958 2956 2952 2946 2941 2935 2931 2926 2921 2916 2910 2905 2901 2897 2893 2889 2885 2881 2877 2873 2869
3020 3017 3015 3014 3013 3009 3006 3003 2999 2995 2991 2987 2983 2978 2975 2971 2970 2968 2965 2964 2961 2960 2958 2956 2952 2947 2941 2934 2929 2924 2918 2913 2908 2904 2900 2896 2892 2888 2884 2880 2876 2871 2868 2864
3019 3017 3015 3012 3010 3007 3003 2999 2995 2991 2987 2984 2979 2975 2971 2970 2969 2967 2965 2963 2961 2960 2957 2953 2947 2941 2935 2928 2923 2917 2912 2908 2903 2899 2895 2891 2887 2884 2879 2875 2871 2866 2862 2858
3018 3016 3012 3009 3006 3002 2998 2995 2991 2987 2984 2980 2977 2975 2973 2971 2968 2967 2965 2963 2961 2957 2953 2948 2942 2935 2929 2923 2918 2913 2908 2903 2899 2895 2891 2887 2883 2878 2874 2870 2865 2861 2857 2853
Wind_Speed
38 38 39 39 41 38 36 33 26 28 28 20 29 21 14 14 16 13 7 5 6 8 12 8 2 8 12 19 23 17 6 3 3 8 12 10 11 11 10 5 1 5 2 4
39 38 39 40 38 41 42 38 32 31 29 26 27 21 14 14 14 12 9 6 9 14 9 3 4 9 12 13 8 4 4 1 5 4 5 11 9 8 6 11 10 4 2 5
41 40 40 39 36 37 39 37 31 32 32 27 25 24 20 16 12 11 12 10 10 8 7 6 3 5 8 14 12 4 3 2 2 3 5 7 1 6 7 5 3 6 1 3
43 43 43 40 39 36 39 36 31 31 27 26 26 25 18 14 11 11 12 9 10 10 9 5 5 4 4 10 14 10 6 2 4 7 6 6 2 1 2 2 3 3 5 6
42 42 44 44 41 36 38 39 33 31 25 22 24 22 17 16 15 14 14 10 10 9 9 6 2 4 8 9 10 10 8 3 4 14 11 7 6 9 5 6 10 4 3 5
41 42 43 43 42 40 40 39 35 31 25 20 24 21 17 16 15 15 13 12 10 8 7 4 1 4 6 8 11 13 10 6 3 3 2 5 4 6 9 8 10 11 10 13
41 41 41 42 40 40 40 39 34 30 23 17 22 18 15 15 14 14 12 10 9 10 7 3 2 5 5 5 9 9 11 7 4 1 0 1 5 5 14 16 15 15 16 18
39 39 40 41 40 40 40 40 35 29 23 14 21 17 14 14 13 12 9 8 9 9 10 5 5 3 2 4 5 6 10 8 2 1 1 1 3 8 16 17 15 12 18 21
38 39 39 40 40 39 39 39 37 27 23 14 17 16 14 13 12 12 10 8 8 8 7 6 3 1 2 2 3 6 9 3 2 1 2 4 3 11 18 14 4 23 30 34
37 39 41 41 42 40 39 38 35 26 22 12 13 14 15 14 12 12 10 11 8 8 8 7 3 3 4 3 4 3 3 2 3 2 3 4 6 15 18 8 11 28 34 42
39 39 42 43 43 42 41 38 32 26 20 8 10 12 15 14 12 12 13 11 12 9 8 5 4 5 4 5 7 6 4 3 2 2 3 5 9 17 19 25 27 32 37 44
40 41 42 43 42 42 43 37 27 26 14 10 8 8 12 13 13 14 15 14 14 11 10 11 9 11 14 11 6 7 4 5 5 4 7 12 16 22 28 30 33 39 42 43
42 43 42 42 41 42 41 32 27 21 15 7 8 6 9 13 13 16 17 16 17 17 18 18 14 12 14 12 12 13 12 10 15 16 13 19 19 22 27 30 36 40 44 36
43 44 44 42 40 41 39 29 25 18 16 9 8 11 7 11 17 14 23 21 22 22 23 23 21 18 14 15 17 20 19 22 23 23 22 22 23 26 30 34 39 43 35 33
45 44 44 41 39 38 31 29 19 19 15 15 13 11 8 10 16 19 22 27 27 27 27 26 22 21 17 17 21 24 15 13 14 19 20 21 24 29 33 38 39 32 31 30
46 45 44 41 39 35 27 29 17 18 17 19 12 11 11 13 15 21 23 31 32 28 24 22 16 15 12 9 10 11 12 15 14 14 20 23 27 33 39 36 28 26 28 29
45 45 42 40 35 29 26 20 16 14 15 16 10 8 16 18 18 25 28 33 30 22 16 8 9 8 9 13 12 7 10 12 14 18 22 27 33 38 31 27 26 27 28 28
43 42 41 37 32 23 29 20 12 11 16 11 5 11 22 20 26 31 33 33 26 17 8 10 9 7 5 2 6 10 12 13 17 20 25 30 37 33 27 26 26 25 25 25
39 40 39 37 32 30 27 19 11 12 13 8 6 17 20 29 31 33 34 30 18 10 8 7 9 6 2 3 8 11 13 16 20 24 29 34 36 29 25 24 25 25 25 25
39 39 39 38 33 27 21 8 10 12 16 11 10 27 27 30 31 33 27 13 8 6 5 9 4 6 6 11 17 24 26 23 23 27 33 36 34 27 23 24 26 27 27 26
40 40 37 32 24 15 7 6 9 13 11 10 26 29 31 31 32 28 11 9 7 3 4 6 2 5 13 20 22 24 25 25 25 32 36 36 31 26 25 25 26 26 26 25
37 36 30 20 11 6 5 7 13 11 9 22 28 29 31 33 29 16 8 7 4 3 6 5 1 5 26 28 27 27 26 27 31 36 35 33 27 25 24 25 25 26 26 25
38 32 13 10 5 5 5 14 17 20 24 27 27 29 30 26 20 10 5 4 4 10 3 3 3 20 30 33 33 29 26 29 34 34 33 28 25 25 25 24 23 23 24 24
35 19 10 4 4 7 18 20 25 25 26 26 27 28 23 24 13 6 5 5 6 3 3 3 17 33 36 38 34 29 30 32 33 30 26 24 24 24 25 25 24 23 22 22
23 8 6 9 14 21 24 24 27 27 25 25 27 27 20 14 7 5 6 4 3 4 6 21 32 35 40 37 34 32 32 30 27 25 24 24 24 23 23 24 24 23 22 21
11 4 16 17 18 20 24 23 25 23 23 26 25 17 7 5 5 4 4 5 3 11 25 28 34 40 38 35 32 30 28 26 25 24 24 23 23 23 24 24 24 23 23 22
15 14 16 18 20 21 21 23 22 23 24 22 18 6 4 8 5 6 5 7 20 28 26 33 39 37 33 30 29 27 26 26 25 24 23 23 24 24 24 23 23 24 23 23
Wind_Direction
360 359 357 357 355 0 360 4 9 4 3 353 12 14 6 346 333 341 348 330 341 351 343 343 9 11 343 327 315 312 300 287 284 304 302 290 276 274 275 236 243 237 246 148
357 357 358 358 356 358 359 3 7 6 4 17 15 13 360 350 346 359 6 0 353 341 342 336 353 1 356 338 16 36 303 356 342 313 87 26 41 32 346 254 286 249 262 150
353 357 359 1 359 358 2 4 10 4 5 11 12 8 5 7 6 7 0 352 352 9 18 14 44 65 22 22 27 16 8 329 312 298 311 335 66 352 355 9 332 341 20 170
353 354 357 1 1 0 3 7 11 8 2 8 7 5 11 13 20 11 3 349 13 24 14 46 65 50 39 21 19 31 38 43 348 303 293 220 177 30 335 332 319 270 311 304
352 354 354 357 359 1 0 9 9 5 4 7 5 8 12 12 13 11 13 8 354 0 9 27 90 30 26 17 5 10 23 46 83 74 152 155 92 60 52 17 359 323 328 283
352 353 353 355 359 0 360 3 2 2 2 1 3 7 11 10 9 8 12 12 7 1 357 360 82 356 354 0 18 19 18 32 65 154 243 257 291 14 14 11 358 351 314 292
351 352 352 355 358 358 357 359 358 358 357 356 2 7 8 8 3 6 10 18 16 10 8 1 282 310 327 338 8 15 23 19 24 187 84 36 187 1 345 329 319 315 305 288
350 351 352 357 357 355 354 355 357 355 354 351 0 3 1 3 5 3 2 9 12 11 11 351 307 312 271 287 315 1 1 351 333 344 76 189 305 353 350 335 335 4 347 324
351 351 353 353 354 352 350 351 354 352 352 347 357 3 1 354 355 360 356 349 348 351 354 343 305 343 307 279 288 303 334 349 355 233 191 191 108 8 352 345 332 346 339 331
350 348 350 351 351 349 347 348 351 349 349 343 354 5 4 358 348 348 346 346 345 331 324 308 299 288 316 301 300 290 308 325 5 325 270 240 237 332 330 333 310 327 327 328
345 347 346 348 348 348 347 347 349 347 346 346 355 7 6 4 359 352 351 347 344 339 336 296 303 270 273 273 301 299 298 319 286 295 264 285 291 305 311 316 316 319 322 323
342 342 342 345 346 346 346 347 350 346 348 345 351 6 13 15 14 4 0 358 348 339 329 308 294 275 280 268 276 275 277 294 274 263 284 304 297 296 304 305 306 314 313 320
338 340 341 341 344 344 345 350 349 352 350 351 348 346 6 13 5 5 356 349 345 342 333 327 318 285 274 268 275 268 278 296 279 295 322 317 306 303 308 310 309 313 317 320
337 338 340 343 343 342 344 349 350 357 355 354 332 330 302 356 3 341 350 340 329 322 314 309 307 309 284 273 273 274 276 288 290 293 305 309 312 311 314 314 315 318 320 320
335 337 340 341 342 339 344 345 350 356 356 348 338 334 326 299 341 341 335 335 329 325 314 309 305 301 299 286 275 276 298 295 292 300 308 315 320 317 316 315 317 318 319 320
333 335 339 339 338 338 342 344 347 348 345 348 343 341 347 329 317 331 325 332 327 323 313 311 303 306 291 274 279 327 320 314 320 326 328 324 318 314 313 316 317 319 320 323
331 334 339 339 336 335 342 337 327 341 341 345 337 352 345 332 329 330 326 330 326 325 316 321 315 308 273 274 294 356 343 330 330 327 324 320 318 320 320 319 322 326 327 328
333 335 338 340 339 334 336 343 336 342 340 349 346 341 338 338 332 332 333 332 329 332 325 328 329 311 278 290 351 337 322 325 329 325 322 321 326 325 323 322 323 324 324 324
334 336 338 341 342 333 333 333 342 352 352 344 331 336 342 337 336 335 336 330 322 322 324 334 345 340 320 327 315 326 313 324 330 325 324 325 328 325 320 319 320 323 324 325
335 336 341 340 334 327 332 347 7 357 342 339 340 338 337 336 336 332 329 310 310 314 316 328 331 51 15 336 328 328 327 326 326 322 323 324 326 322 321 321 324 327 328 329
337 341 340 336 331 338 358 12 12 343 327 328 333 338 334 331 331 325 317 300 291 287 296 323 314 53 357 341 327 325 325 321 313 318 322 324 324 323 324 325 326 324 325 327
338 338 337 329 338 354 3 6 347 336 314 317 327 331 332 328 328 321 304 289 276 275 316 284 201 322 346 340 337 332 326 314 312 318 321 323 322 321 323 323 323 322 324 326
336 341 327 332 339 350 3 338 333 331 324 323 324 328 329 324 324 300 289 271 263 305 292 276 265 329 338 337 333 330 322 314 315 318 320 322 321 321 321 322 321 322 323 324
341 334 323 345 344 324 331 336 340 332 328 325 327 328 319 314 310 284 278 274 297 267 269 289 322 334 333 333 331 328 320 317 318 320 321 321 321 320 320 322 322 324 324 324
338 332 1 345 322 323 331 330 335 328 327 331 331 328 321 309 277 286 291 287 286 293 312 323 329 332 333 331 328 324 322 322 323 324 323 322 321 320 320 321 322 324 324 324
351 331 327 323 326 327 323 326 326 328 333 334 334 328 307 302 292 293 283 284 299 335 324 329 333 332 329 328 328 328 327 327 326 325 324 323 322 323 323 322 322 324 327 326
336 320 333 330 328 332 332 329 333 331 335 335 337 324 311 313 306 300 305 322 320 324 325 328 329 329 330 332 332 332 331 331 329 327 326 325 325 324 324 325 326 326 325 324